User: anonymous   Login
Location: Unspecified
(0.0000°N, 0.0000°E)
Time: 12:33:27
(UTC+00:00)
Language:

Telecom 2D - Orbit

View from above orbital plane
View from above orbital plane
View from above satellite
View from above satellite

Ground track
Ground track

The orbit data is extracted from the following two-line orbital elements,

1 24209U 96044B   18293.15188317 -.00000225 +00000-0 +00000-0 0  9997
2 24209 009.4336 042.2458 0016482 294.1792 249.8753 00.98449293081010
Epoch (UTC): 20 October 2018 03:38:42
Eccentricity: 0.0016482
inclination: 9.4336°
perigee height: 36234 km
apogee height: 36375 km
right ascension of ascending node: 42.2458°
argument of perigee: 294.1792°
revolutions per day: 0.98449293
mean anomaly at epoch: 249.8753°
orbit number at epoch: 8101

The dashed part of the orbit path shows where the satellite is in the earth's shadow,  

DLR